Weather History for KGCC - September, 2013

Change the Weather History Date:

Friday, September 20, 2013

  Actual Average Record
Temperature  
Mean Temperature 58 °F 56 °F  
Max Temperature 76 °F 71 °F 97 °F (1956)
Min Temperature 39 °F 42 °F 24 °F (1983)
Degree Days  
Heating Degree Days 7 9  
Month to date heating degree days 34 120  
Since 1 July heating degree days 34 177  
Cooling Degree Days 0 1  
Month to date cooling degree days 88 38  
Year to date cooling degree days 610 498  
Growing Degree Days 7 (Base 50)    
Moisture  
Dew Point 32 °F    
Average Humidity 49    
Maximum Humidity 85    
Minimum Humidity 13    
Precipitation  
Precipitation 0.00 in 0.05 in 0.85 in (1989)
Month to date precipitation 1.06 0.72  
Year to date precipitation 14.49 11.20  
Sea Level Pressure  
Sea Level Pressure 30.00 in    
Wind  
Wind Speed 8 mph (South)    
Max Wind Speed 17 mph    
Max Gust Speed 22 mph    
Visibility 10 miles    
Events      
T = Trace of Precipitation, MM = Missing Value Source: NWS Daily Summary

Daily Weather History Graph

Daily Weather History Graph

Search for Another Location

Airport or City:

Trip Planner

Search our weather history database for the weather conditions in past years. The results will help you decide how hot, cold, wet, or windy it might be!

Date:

Astronomy

Sep. 20, 2013 Rise Set
Actual Time 6:47 AM MDT 7:02 PM MDT
Civil Twilight 6:18 AM MDT 7:31 PM MDT
Nautical Twilight 5:44 AM MDT 8:05 PM MDT
Astronomical Twilight 5:09 AM MDT 8:40 PM MDT
Moon 7:32 PM MDT (9/20) 8:09 AM MDT (9/20)
Length of Visible Light 13h 13m
Length of Day
12h 15m
Full, 98% of the Moon is Illuminated
Sep 20
Full
Sep 26
Last Quarter
Oct 4
New
Oct 11
First Quarter
Oct 18
Full

Hourly Weather History & Observations

Time (MDT) Temp. Windchill Dew Point Humidity Pressure Visibility Wind Dir Wind Speed Gust Speed Precip Events Conditions
12:53 AM 39.9 °F - 36.0 °F 86% 30.16 in 10.0 mi Calm Calm - N/A   Clear
1:53 AM 39.9 °F - 35.1 °F 83% 30.15 in 10.0 mi Calm Calm - N/A   Clear
2:53 AM 41.0 °F - 36.0 °F 82% 30.13 in 10.0 mi Calm Calm - N/A   Clear
3:53 AM 43.0 °F - 36.0 °F 76% 30.12 in 10.0 mi Calm Calm - N/A   Clear
4:53 AM 42.1 °F 38.4 °F 36.0 °F 79% 30.11 in 10.0 mi SSW 5.8 mph - N/A   Clear
5:53 AM 44.1 °F 42.5 °F 37.0 °F 76% 30.10 in 10.0 mi SSW 3.5 mph - N/A   Clear
6:53 AM 43.0 °F - 36.0 °F 76% 30.12 in 10.0 mi Calm Calm - N/A   Clear
7:53 AM 48.9 °F - 37.9 °F 66% 30.12 in 10.0 mi South 4.6 mph - N/A   Clear
8:53 AM 55.0 °F - 37.9 °F 53% 30.10 in 10.0 mi SSW 10.4 mph - N/A   Clear
9:53 AM 59.0 °F - 37.0 °F 44% 30.09 in 10.0 mi SSW 10.4 mph - N/A   Clear
10:53 AM 63.0 °F - 34.0 °F 34% 30.06 in 10.0 mi South 3.5 mph - N/A   Clear
11:53 AM 66.0 °F - 34.0 °F 30% 30.02 in 10.0 mi SSE 10.4 mph - N/A   Clear
12:53 PM 69.1 °F - 33.1 °F 26% 29.99 in 10.0 mi South 9.2 mph - N/A   Clear
1:53 PM 72.0 °F - 28.0 °F 20% 29.96 in 10.0 mi SSW 12.7 mph - N/A   Clear
2:53 PM 73.9 °F - 25.0 °F 16% 29.92 in 10.0 mi South 8.1 mph - N/A   Clear
3:53 PM 75.0 °F - 23.0 °F 14% 29.89 in 10.0 mi South 8.1 mph - N/A   Clear
4:53 PM 75.0 °F - 21.0 °F 13% 29.88 in 10.0 mi SSE 5.8 mph - N/A   Clear
5:53 PM 73.9 °F - 23.0 °F 15% 29.87 in 10.0 mi South 8.1 mph - N/A   Clear
6:53 PM 60.1 °F - 33.1 °F 36% 29.88 in 10.0 mi SSE 6.9 mph - N/A   Clear
7:53 PM 59.0 °F - 30.0 °F 33% 29.87 in 10.0 mi SSE 10.4 mph - N/A   Clear
8:53 PM 57.9 °F - 30.9 °F 36% 29.87 in 10.0 mi SSE 12.7 mph - N/A   Clear
9:53 PM 57.9 °F - 32.0 °F 37% 29.84 in 10.0 mi South 16.1 mph - N/A   Clear
10:53 PM 54.0 °F - 32.0 °F 43% 29.84 in 10.0 mi SSE 12.7 mph - N/A   Clear
11:53 PM 54.0 °F - 30.9 °F 41% 29.82 in 10.0 mi South 12.7 mph - N/A   Clear